Canadian, TX

4:17 PM CDT on August 24, 2019 (GMT -0500)
Hemphill County

Weather History for KHHF - June, 2019

Change the Weather History Date:

Wednesday, June 12, 2019

  Actual Average (KPPA) Record (KPPA)
Temperature  
Mean Temperature 68 °F -  
Max Temperature 79 °F 85 °F 102 °F (2018)
Min Temperature 56 °F 58 °F 45 °F (1975)
Cooling Degree Days 2    
Growing Degree Days 18 (Base 50)    
Moisture  
Dew Point 52 °F    
Average Humidity 58    
Maximum Humidity 90    
Minimum Humidity 34    
Precipitation  
Precipitation 0.00 in - - ()
Sea Level Pressure  
Sea Level Pressure 30.15 in    
Wind  
Wind Speed 8 mph (NNE)    
Max Wind Speed 17 mph    
Max Gust Speed 25 mph    
Visibility 10 miles    
Events      
Averages and records for this station are not official NWS values.
T = Trace of Precipitation, MM = Missing Value Source: NWS Daily Summary

Daily Weather History Graph

Daily Weather History Graph

Search for Another Location

Airport or City:

Astronomy

Jun. 12, 2019 Rise Set
Actual Time 6:24 AM CDT 8:58 PM CDT
Civil Twilight 5:54 AM CDT 9:28 PM CDT
Nautical Twilight 5:17 AM CDT 10:05 PM CDT
Astronomical Twilight 4:35 AM CDT 10:47 PM CDT
Moon 4:17 PM CDT (6/12) 3:28 AM CDT (6/12)
Length of Visible Light 15h 34m
Length of Day
14h 33m
Waxing Gibbous, 77% of the Moon is Illuminated
Jun 12
Waxing Gibbous
Jun 17
Full
Jun 25
Last Quarter
Jul 2
New
Jul 9
First Quarter

Hourly Weather History & Observations

Time (CDT) Temp. Dew Point Humidity Pressure Visibility Wind Dir Wind Speed Gust Speed Precip Events Conditions
12:15 AM 68.7 °F 61.2 °F 77% 30.06 in 10.0 mi Calm Calm - N/A   Clear
12:35 AM 68.2 °F 61.2 °F 78% 30.06 in 10.0 mi SSE 3.5 mph - N/A   Clear
12:55 AM 67.8 °F 61.2 °F 79% 30.07 in 10.0 mi North 4.6 mph - N/A   Clear
1:15 AM 67.3 °F 60.3 °F 78% 30.08 in 10.0 mi North 3.5 mph - N/A   Clear
1:35 AM 66.9 °F 58.6 °F 75% 30.09 in 10.0 mi North 5.8 mph - N/A   Clear
1:55 AM 67.6 °F 58.1 °F 71% 30.09 in 10.0 mi North 11.5 mph - N/A   Clear
2:15 AM 68.0 °F 58.1 °F 71% 30.09 in 10.0 mi NNE 8.1 mph - N/A   Clear
2:35 AM 67.5 °F 58.3 °F 72% 30.09 in 10.0 mi NNE 3.5 mph - N/A   Scattered Clouds
2:55 AM 66.2 °F 58.1 °F 75% 30.08 in 10.0 mi NE 3.5 mph - N/A   Scattered Clouds
3:15 AM 66.2 °F 58.1 °F 75% 30.09 in 10.0 mi Calm Calm - N/A   Clear
3:35 AM 66.7 °F 59.0 °F 76% 30.08 in 10.0 mi NNE 11.5 mph 17.3 mph N/A   Clear
3:55 AM 66.2 °F 59.0 °F 78% 30.09 in 10.0 mi NNE 12.7 mph 17.3 mph N/A   Clear
4:15 AM 64.9 °F 59.0 °F 81% 30.09 in 10.0 mi NNE 10.4 mph - N/A   Clear
4:35 AM 63.5 °F 58.5 °F 84% 30.09 in 10.0 mi North 4.6 mph - N/A   Clear
4:55 AM 61.0 °F 58.1 °F 90% 30.10 in 10.0 mi NW 5.8 mph - N/A   Clear
5:15 AM 61.7 °F 58.6 °F 90% 30.12 in 10.0 mi NNW 9.2 mph - N/A   Clear
5:35 AM 61.0 °F 57.6 °F 88% 30.12 in 10.0 mi North 6.9 mph - N/A   Clear
5:55 AM 60.1 °F 56.5 °F 88% 30.12 in 10.0 mi NNW 4.6 mph - N/A   Clear
6:15 AM 59.4 °F 55.4 °F 87% 30.13 in 10.0 mi NNW 4.6 mph - N/A   Clear
6:35 AM 59.4 °F 54.7 °F 84% 30.13 in 10.0 mi North 4.6 mph - N/A   Clear
6:55 AM 59.9 °F 54.3 °F 82% 30.14 in 10.0 mi North 5.8 mph - N/A   Clear
7:15 AM 61.0 °F 54.1 °F 78% 30.15 in 10.0 mi North 6.9 mph - N/A   Clear
7:35 AM 62.4 °F 54.0 °F 74% 30.16 in 10.0 mi North 9.2 mph - N/A   Clear
7:55 AM 63.1 °F 53.2 °F 70% 30.17 in 10.0 mi North 13.8 mph - N/A   Clear
8:15 AM 63.5 °F 52.2 °F 67% 30.18 in 10.0 mi North 9.2 mph - N/A   Clear
8:35 AM 64.4 °F 51.8 °F 64% 30.18 in 10.0 mi North 12.7 mph 17.3 mph N/A   Clear
8:55 AM 64.2 °F 52.0 °F 64% 30.19 in 10.0 mi NNE 11.5 mph - N/A   Clear
9:15 AM 67.8 °F 51.3 °F 55% 30.19 in 10.0 mi NNE 16.1 mph 21.9 mph N/A   Clear
9:35 AM 68.0 °F 51.3 °F 55% 30.20 in 10.0 mi North 13.8 mph 21.9 mph N/A   Clear
9:55 AM 70.3 °F 51.6 °F 51% 30.20 in 10.0 mi NNE 15.0 mph 25.3 mph N/A   Clear
10:15 AM 70.9 °F 51.6 °F 50% 30.21 in 10.0 mi North 16.1 mph 20.7 mph N/A   Clear
10:35 AM 72.0 °F 51.8 °F 49% 30.21 in 10.0 mi North 17.3 mph - N/A   Clear
10:55 AM 71.6 °F 51.6 °F 49% 30.20 in 10.0 mi NNE 16.1 mph 24.2 mph N/A   Clear
11:15 AM 72.7 °F 52.0 °F 48% 30.21 in 10.0 mi North 12.7 mph 19.6 mph N/A   Clear
11:35 AM 73.4 °F 50.5 °F 45% 30.21 in 10.0 mi NNE 16.1 mph 19.6 mph N/A   Clear
11:55 AM 73.6 °F 49.8 °F 43% 30.21 in 10.0 mi NNE 13.8 mph 23.0 mph N/A   Clear
12:15 PM 75.2 °F 50.0 °F 41% 30.21 in 10.0 mi NNE 16.1 mph 23.0 mph N/A   Clear
12:35 PM 75.2 °F 49.8 °F 41% 30.21 in 10.0 mi NNE 11.5 mph - N/A   Clear
12:55 PM 75.2 °F 49.3 °F 40% 30.20 in 10.0 mi NNE 9.2 mph 17.3 mph N/A   Clear
1:15 PM 75.4 °F 50.0 °F 41% 30.20 in 10.0 mi NNE 11.5 mph 20.7 mph N/A   Clear
1:35 PM 75.9 °F 49.5 °F 39% 30.20 in 10.0 mi North 10.4 mph 23.0 mph N/A   Clear
1:55 PM 75.7 °F 48.9 °F 39% 30.19 in 10.0 mi NNE 15.0 mph 20.7 mph N/A   Scattered Clouds
2:15 PM 76.1 °F 49.5 °F 39% 30.19 in 10.0 mi NNE 12.7 mph 18.4 mph N/A   Clear
2:35 PM 76.6 °F 49.8 °F 39% 30.18 in 10.0 mi North 9.2 mph 16.1 mph N/A   Scattered Clouds
2:55 PM 77.4 °F 49.3 °F 37% 30.17 in 10.0 mi NNW 12.7 mph 17.3 mph N/A   Clear
3:15 PM 76.3 °F 48.7 °F 38% 30.17 in 10.0 mi North 9.2 mph - N/A   Scattered Clouds
3:35 PM 77.9 °F 49.3 °F 37% 30.17 in 10.0 mi North 11.5 mph 17.3 mph N/A   Scattered Clouds
3:55 PM 77.2 °F 49.6 °F 38% 30.16 in 10.0 mi North 15.0 mph 21.9 mph N/A   Mostly Cloudy
4:15 PM 78.3 °F 49.3 °F 36% 30.16 in 10.0 mi North 13.8 mph - N/A   Mostly Cloudy
4:35 PM 76.6 °F 48.2 °F 37% 30.15 in 10.0 mi North 11.5 mph 17.3 mph N/A   Scattered Clouds
4:55 PM 77.5 °F 48.6 °F 36% 30.14 in 10.0 mi North 11.5 mph 17.3 mph N/A   Scattered Clouds
5:15 PM 79.2 °F 49.5 °F 35% 30.14 in 10.0 mi North 15.0 mph 18.4 mph N/A   Scattered Clouds
5:35 PM 78.1 °F 47.5 °F 34% 30.14 in 10.0 mi North 15.0 mph 21.9 mph N/A   Scattered Clouds
5:55 PM 78.8 °F 48.9 °F 35% 30.14 in 10.0 mi North 11.5 mph 17.3 mph N/A   Scattered Clouds
6:15 PM 77.9 °F 47.5 °F 34% 30.14 in 10.0 mi NNE 11.5 mph 19.6 mph N/A   Clear
6:35 PM 77.5 °F 47.7 °F 35% 30.13 in 10.0 mi NNE 15.0 mph - N/A   Clear
6:55 PM 77.5 °F 47.8 °F 35% 30.12 in 10.0 mi NNE 13.8 mph 17.3 mph N/A   Clear
7:15 PM 76.6 °F 46.4 °F 34% 30.13 in 10.0 mi NNE 9.2 mph 18.4 mph N/A   Clear
7:35 PM 76.3 °F 46.6 °F 35% 30.13 in 10.0 mi NE 11.5 mph 16.1 mph N/A   Clear
7:55 PM 75.2 °F 45.9 °F 35% 30.13 in 10.0 mi NNE 9.2 mph - N/A   Clear
8:15 PM 75.2 °F 47.3 °F 37% 30.13 in 10.0 mi NNE 6.9 mph - N/A   Clear
8:35 PM 72.7 °F 47.8 °F 41% 30.13 in 10.0 mi NE 6.9 mph - N/A   Clear
8:55 PM 72.1 °F 47.5 °F 41% 30.13 in 10.0 mi ENE 5.8 mph - N/A   Clear
9:15 PM 70.0 °F 48.9 °F 47% 30.14 in 10.0 mi East 3.5 mph - N/A   Clear
9:35 PM 66.6 °F 49.8 °F 55% 30.14 in 10.0 mi East 4.6 mph - N/A   Clear
9:55 PM 64.0 °F 50.0 °F 60% 30.14 in 10.0 mi East 8.1 mph - N/A   Clear
10:15 PM 64.0 °F 50.5 °F 61% 30.14 in 10.0 mi East 5.8 mph - N/A   Clear
10:35 PM 59.7 °F 50.9 °F 73% 30.16 in 10.0 mi WSW 3.5 mph - N/A   Clear
10:55 PM 57.2 °F 51.1 °F 80% 30.17 in 10.0 mi Calm Calm - N/A   Clear
11:15 PM 56.7 °F 51.8 °F 84% 30.18 in 10.0 mi SW 4.6 mph - N/A   Clear
11:35 PM 57.7 °F 51.1 °F 78% 30.19 in 10.0 mi Calm Calm - N/A   Clear
11:55 PM 56.8 °F 51.1 °F 81% 30.19 in 10.0 mi Calm Calm - N/A   Clear